Probability
0 0 0 0 0 0 0 0 0 0 0 0 0 0 0 0 0 0 0 0 0 0 0 0 0 0 0 0 0 0 0 0 0 0 0 0 0 0
0 0 0 0 0 0 0 0 0 0 0 0 0 0 0 0 0 0 0 0 0 0 0 0 0 0 0 0 0 0 0 0 0 0 0 0 0 0
0 0 0 0 0 0 0 0 0 0 0 0 0 0 0 0 0 0 0 0 0 0 0 0 0 0 0 0 0 0 0 0 0 0 0 0 0 0
0 0 0 0 0 0 0 0 0 0 0 0 0 0 0 0 0 0 0 0 0 0 0 0 0 0 0 0 0 0 0 0 0 0 0 0 0 0
0 0 0 0 0 0 0 0 0 0 0 0 0 0 0 0 0 0 0 0 0 0 0 0 0 0 0 0 0 0 0 0 0 0 0 0 0 0
0 0 0 0 0 0 0 0 0 0 0 0 0 0 0 0 0 0 0 0 0 0 0 0 0 0 0 0 0 0 0 0 0 0 0 0 0 0
0 0 0 0 0 0 0 0 0 0 0 0 0 0 0 0 0 0 0 0 0 0 0 0 0 0 0 0 0 0 0 0 0 0 0 0 0 0
0 0 0 0 0 0 0 0 0 0 0 0 0 0 0 0 0 0 0 0 0 0 0 0 0 0 0 0 0 0 0 0 0 0 0 0 0 0
0 0 0 0 0 0 0 0 0 0 0 0 0 0 0 0 0 0 0 0 0 0 0 0 0 0 0 0 0 0 0 0 0 0 0 0 0 0
0 0 0 0 0 0 0 0 0 0 0 0 0 0 0 0 0 0 0 0 0 0 0 0 0 0 0 0 0 0 0 0 0 0 0 0 0 0
0 0 0 0 0 0 0 0 0 0 0 0 0 0 0 0 0 0 0 0 0 0 0 0 0 0 0 0 0 0 0 0 0 0 0 0 0 0
0 0 0 0 0 0 0 0 0 0 0 0 0 0 0 0 0 0 0 0 0 0 0 0 0 0 0 0 0 0 0 0 0 0 0 0 0 0
0 0 0 0 0 0 0 0 0 0 0 0 0 0 0 0 0 0 0 0 0 0 0 0 0 0 0 0 0 0 0 0 0 0 0 0 0 0
0 0 0 0 0 0 0 0 0 0 0 0 0 0 0 0 0 0 0 0 0 0 0 0 0 0 0 0 0 0 0 0 0 0 0 0 0 0
0 0 0 0 0 0 0 0 0 0 0 0 0 0 0 0 0 0 0 0 0 0 0 0 0 0 0 0 0 0 0 0 0 0 0 0 0 0
0 0 0 0 0 0 0 0 0 0 0 0 0 0 0 0 0 0 0 0 0 0 0 0 0 0 0 0 0 0 0 0 0 0 0 0 0 0
0 0 0 0 0 0 0 0 0 0 0 0 0 0 0 0 0 0 0 0 0 0 0 0 0 0 0 0 0 0 0 0 0 0 0 0 0 0
0 0 0 0 0 0 0 0 0 0 0 0 0 0 0 0 0 0 0 0 0 0 0 0 0 0 0 0 0 0 0 0 0 0 0 0 0 0
0 0 0 0 0 0 0 0 0 0 0 0 0 0 0 0 0 0 0 0 0 0 0 0 0 0 0 0 0 0 0 0 0 0 0 0 0 0
0 0 0 0 0 0 0 0 0 0 0 0 0 0 0 0 0 0 0 0 0 0 0 0 0 0 0 0 0 0 0 0 0 0 0 0 0 0
0 0 0 0 0 0 0 0 0 0 0 0 0 0 0 0 0 0 0 0 0 0 0 0 0 0 0 0 0 0 0 0 0 0 0 0 0 0
0 0 0 0 0 0 0 0 0 0 0 0 0 0 0 0 0 0 0 0 0 0 0 0 0 0 0 0 0 0 0 0 0 0 0 0 0 0
0 0 0 0 0 0 0 0 0 0 0 0 0 0 0 0 0 0 0 0 0 0 0 0 0 0 0 0 0 0 0 0 0 0 0 0 0 0
Wind_Speed
1 0 1 1 1 1 2 2 3 6 6 5 4 4 6 6 13 10 8 20 28 28 29 29 29 29 29 29 29 29 28 28 28 29 29 29 29 30
1 2 2 2 2 2 2 3 4 6 9 4 5 6 7 10 17 12 10 26 27 28 29 29 29 29 29 29 29 29 29 29 29 29 29 29 30 30
2 3 3 3 2 2 3 3 4 5 11 9 5 6 8 10 11 9 11 10 12 25 28 29 29 29 29 29 29 29 29 29 29 29 29 30 30 30
3 3 3 3 3 3 3 4 4 5 8 13 7 6 9 10 10 11 12 12 9 21 27 28 28 29 29 29 29 29 29 29 29 29 29 29 29 29
3 3 4 3 4 4 4 4 4 6 6 9 10 7 7 9 10 11 11 9 12 16 22 24 27 29 29 30 30 30 30 29 29 28 28 28 28 29
4 4 4 4 5 4 5 5 6 6 6 8 10 9 9 8 8 8 10 6 9 12 17 20 24 27 28 30 31 30 30 29 28 28 27 27 28 28
5 5 4 7 10 8 7 6 6 6 6 8 10 11 10 8 8 8 11 9 9 9 9 10 11 10 14 21 25 27 29 29 29 28 28 28 28 28
6 5 5 7 10 14 17 17 15 11 9 9 11 12 12 10 9 9 11 13 13 5 7 11 9 11 10 9 21 29 29 30 29 29 28 28 27 27
6 5 6 6 11 6 11 16 15 20 21 15 14 13 13 11 10 12 12 13 15 11 10 15 10 12 10 14 26 30 31 31 29 28 27 27 27 27
6 6 6 6 8 10 8 7 7 10 15 13 11 12 12 10 11 13 14 13 12 9 8 14 13 13 13 10 22 29 30 28 27 27 28 28 27 27
6 7 8 7 15 19 11 8 10 10 16 21 23 23 27 27 22 11 9 11 14 11 6 7 10 12 11 12 15 22 23 26 28 29 29 28 27 26
5 7 13 15 18 20 11 10 13 12 11 12 14 17 15 16 21 11 7 10 12 10 4 4 7 9 10 6 6 8 13 21 27 27 28 27 27 17
5 5 7 18 21 23 21 11 15 17 10 9 10 10 9 8 8 7 7 8 12 12 8 6 9 7 9 11 8 8 10 11 11 15 21 25 26 21
6 5 8 20 23 24 17 17 22 18 7 8 9 9 9 9 9 10 11 11 12 15 15 12 12 12 13 15 14 10 9 10 11 12 11 18 20 24
7 15 20 23 21 14 16 20 16 7 7 8 9 9 8 8 10 10 11 11 13 13 12 13 13 12 12 14 14 14 15 12 10 9 9 11 11 11
8 13 19 19 16 15 14 10 7 7 9 8 9 9 8 8 9 9 10 10 11 12 9 10 12 13 13 14 14 16 13 11 10 11 12 12 11 10
11 6 5 7 6 6 7 7 6 7 8 8 9 10 10 10 10 8 8 10 11 13 13 9 7 10 13 14 15 15 13 13 12 11 12 14 12 10
11 5 6 7 7 9 9 10 9 9 9 9 9 9 10 10 11 10 9 10 11 12 12 12 11 12 9 10 16 14 12 12 12 12 12 14 14 10
6 5 6 7 8 8 8 9 10 10 9 9 10 10 10 10 10 11 10 10 11 11 11 10 10 11 14 15 9 10 10 13 13 12 11 11 14 12
5 6 7 7 8 8 9 9 10 10 9 9 10 10 10 10 11 11 11 11 12 12 12 10 8 9 11 14 15 14 13 12 12 14 13 11 11 15
6 6 7 8 8 9 9 9 10 10 11 10 10 11 10 10 11 11 11 16 15 11 12 12 11 17 12 10 12 12 10 11 14 14 14 13 12 9
7 8 8 8 9 9 9 9 10 10 11 10 10 10 10 10 11 13 12 12 11 11 12 12 11 11 9 11 13 14 14 13 13 17 18 16 11 10
8 8 9 9 9 8 9 10 11 11 10 11 11 10 10 11 11 11 11 11 11 11 12 11 10 9 9 10 12 13 15 15 12 12 11 15 19 20
Wind_Direction
203 226 258 256 246 246 249 241 265 290 293 275 287 326 324 307 305 304 292 301 303 302 303 302 301 300 299 299 297 296 294 291 289 286 284 281 279 277
193 234 263 261 266 263 258 257 248 268 283 277 293 295 304 307 304 303 296 301 301 300 299 299 300 299 299 298 297 296 294 291 289 287 285 283 281 279
257 245 258 264 266 268 267 265 262 264 281 287 280 292 296 293 295 289 289 286 287 296 299 300 300 300 300 299 297 295 294 292 290 288 287 285 283 281
271 276 278 283 281 275 270 268 271 272 283 295 298 294 291 290 290 289 297 296 292 299 301 302 302 302 300 298 297 296 295 294 292 290 288 286 284 282
273 268 270 276 277 275 280 282 281 288 285 294 299 295 290 290 292 291 290 290 295 299 302 301 300 299 298 300 301 300 298 296 293 290 287 284 282 280
287 275 267 262 262 269 280 275 278 281 284 289 294 294 290 286 287 295 297 284 290 296 294 294 295 299 299 300 298 297 296 294 291 289 287 284 281 279
303 293 286 288 290 290 286 277 281 281 286 290 292 294 294 296 295 293 298 298 287 282 283 286 291 288 290 292 293 292 292 292 292 292 291 288 284 281
301 298 297 296 296 301 305 305 302 301 300 293 294 294 295 292 292 294 297 300 297 273 284 292 287 286 285 280 288 293 296 297 297 295 293 290 286 282
292 293 298 298 306 293 293 298 299 299 298 295 293 291 291 290 289 290 288 287 289 292 295 293 289 287 285 289 295 296 297 297 296 295 294 292 288 284
298 296 294 292 295 299 287 289 281 290 290 290 282 282 287 287 280 284 287 287 284 280 275 286 292 290 291 287 292 292 293 295 298 299 299 296 292 287
308 313 315 301 303 310 312 300 294 290 297 297 296 297 299 300 300 298 295 296 295 292 277 273 286 296 291 283 283 288 293 299 300 298 297 296 295 293
306 306 311 310 310 314 311 301 301 299 296 297 297 297 294 292 299 295 292 295 296 296 272 277 293 309 299 264 264 285 290 292 294 296 297 297 295 292
298 299 298 310 311 311 310 302 298 303 299 297 297 294 293 290 291 288 286 289 290 285 288 297 290 287 281 291 287 278 279 284 290 291 293 292 291 290
304 298 300 311 312 312 312 306 308 312 303 297 294 295 296 297 297 296 292 285 275 277 283 284 282 284 286 286 291 291 286 284 284 285 282 285 288 289
308 312 314 315 315 313 309 313 318 311 299 295 294 294 291 290 295 296 294 288 280 274 270 266 268 274 273 278 284 289 295 293 280 275 279 284 284 286
305 307 314 314 313 314 316 317 309 297 302 297 298 296 296 295 297 297 299 302 298 294 275 253 255 265 274 275 279 284 284 283 286 285 285 285 281 275
312 307 306 309 313 315 312 308 306 307 307 301 299 300 301 300 298 297 295 298 294 298 302 298 264 259 263 271 277 277 279 281 281 286 291 291 284 274
324 315 312 314 314 314 315 314 312 309 307 304 301 299 299 299 299 299 296 295 295 295 296 300 304 301 288 259 243 262 275 283 289 289 285 287 289 282
333 314 310 309 309 309 308 307 306 305 304 301 299 298 297 297 296 297 298 296 294 293 293 294 296 299 305 307 279 235 269 289 292 290 285 284 287 288
312 306 306 306 306 306 306 305 304 304 303 301 298 297 296 295 295 295 295 295 296 297 298 295 291 294 297 297 297 293 276 278 292 296 296 290 280 277
310 307 305 305 304 303 302 301 300 300 300 300 298 296 295 295 294 294 295 297 300 298 299 299 293 298 294 288 290 294 294 282 284 292 300 299 298 291
309 308 306 303 303 302 301 301 300 299 300 298 296 296 295 293 294 296 297 299 299 297 297 296 297 301 300 301 301 302 306 308 301 296 291 289 298 301
308 306 304 303 301 299 299 298 298 297 296 295 295 296 298 298 297 296 296 298 299 301 305 307 309 308 305 302 303 306 308 313 314 314 306 304 307 303